TimeCDT,TemperatureF,Dew PointF,Humidity,Sea Level PressureIn,VisibilityMPH,Wind Direction,Wind SpeedMPH,Gust SpeedMPH,PrecipitationIn,Events,Conditions,WindDirDegrees,DateUTC
12:12 AM,24.8,23.0,93,30.33,10.0,Calm,Calm,-,N/A,,Clear,0,2012-10-28 05:12:00
1:12 AM,24.8,24.8,100,30.33,10.0,Calm,Calm,-,N/A,,Clear,0,2012-10-28 06:12:00
1:31 AM,24.8,24.8,100,30.33,10.0,Calm,Calm,-,N/A,,Clear,0,2012-10-28 06:31:00
1:52 AM,24.8,24.8,100,30.33,10.0,Calm,Calm,-,N/A,,Clear,0,2012-10-28 06:52:00
2:12 AM,26.6,24.8,93,30.33,10.0,Calm,Calm,-,N/A,,Clear,0,2012-10-28 07:12:00
2:31 AM,24.8,24.8,100,30.33,10.0,Calm,Calm,-,N/A,,Clear,0,2012-10-28 07:31:00
2:52 AM,24.8,24.8,100,30.33,10.0,Calm,Calm,-,N/A,,Clear,0,2012-10-28 07:52:00
3:12 AM,24.8,23.0,93,30.33,10.0,Calm,Calm,-,N/A,,Clear,0,2012-10-28 08:12:00
3:31 AM,24.8,23.0,93,30.32,10.0,Calm,Calm,-,N/A,,Clear,0,2012-10-28 08:31:00
3:52 AM,24.8,23.0,93,30.32,10.0,Calm,Calm,-,N/A,,Clear,0,2012-10-28 08:52:00
4:12 AM,26.6,24.8,93,30.32,10.0,Calm,Calm,-,N/A,,Clear,0,2012-10-28 09:12:00
4:31 AM,24.8,23.0,93,30.32,10.0,Calm,Calm,-,N/A,,Unknown,0,2012-10-28 09:31:00
4:52 AM,24.8,23.0,93,30.32,10.0,SE,3.5,-,N/A,,Unknown,130,2012-10-28 09:52:00
5:12 AM,24.8,21.2,86,30.32,10.0,Calm,Calm,-,N/A,,Unknown,0,2012-10-28 10:12:00
5:32 AM,24.8,23.0,93,30.32,10.0,Calm,Calm,-,N/A,,Unknown,0,2012-10-28 10:32:00
5:52 AM,23.0,21.2,93,30.32,10.0,Calm,Calm,-,N/A,,Unknown,0,2012-10-28 10:52:00
6:12 AM,24.8,21.2,86,30.32,10.0,Calm,Calm,-,N/A,,Unknown,0,2012-10-28 11:12:00
6:32 AM,21.2,19.4,93,30.32,10.0,Calm,Calm,-,N/A,,Unknown,0,2012-10-28 11:32:00
6:52 AM,21.2,21.2,100,30.33,10.0,Calm,Calm,-,N/A,,Unknown,0,2012-10-28 11:52:00
7:12 AM,24.8,23.0,93,30.33,10.0,Calm,Calm,-,N/A,,Unknown,0,2012-10-28 12:12:00
7:32 AM,24.8,23.0,93,30.34,10.0,Calm,Calm,-,N/A,,Unknown,0,2012-10-28 12:32:00
7:52 AM,24.8,21.2,86,30.34,10.0,Calm,Calm,-,N/A,,Unknown,0,2012-10-28 12:52:00
8:12 AM,24.8,23.0,93,30.34,10.0,Calm,Calm,-,N/A,,Unknown,0,2012-10-28 13:12:00
8:32 AM,26.6,23.0,86,30.35,10.0,Calm,Calm,-,N/A,,Unknown,0,2012-10-28 13:32:00
8:52 AM,26.6,24.8,93,30.35,10.0,Calm,Calm,-,N/A,,Unknown,0,2012-10-28 13:52:00
9:12 AM,30.2,24.8,80,30.34,10.0,Calm,Calm,-,N/A,,Unknown,0,2012-10-28 14:12:00
9:52 AM,33.8,24.8,70,30.34,10.0,SSE,5.8,-,N/A,,Overcast,160,2012-10-28 14:52:00
10:12 AM,37.4,26.6,65,30.34,10.0,South,8.1,-,N/A,,Overcast,170,2012-10-28 15:12:00
10:32 AM,37.4,26.6,65,30.34,10.0,South,6.9,-,N/A,,Overcast,170,2012-10-28 15:32:00
10:52 AM,39.2,24.8,56,30.34,10.0,South,11.5,-,N/A,,Overcast,180,2012-10-28 15:52:00
11:12 AM,39.2,24.8,56,30.33,10.0,South,9.2,-,N/A,,Overcast,180,2012-10-28 16:12:00
11:32 AM,41.0,24.8,53,30.33,10.0,South,11.5,-,N/A,,Overcast,180,2012-10-28 16:32:00
12:11 PM,41.0,24.8,53,30.33,10.0,SSE,10.4,-,N/A,,Scattered Clouds,160,2012-10-28 17:11:00
12:32 PM,42.8,24.8,49,30.32,10.0,SSW,6.9,-,N/A,,Scattered Clouds,200,2012-10-28 17:32:00
12:52 PM,42.8,23.0,46,30.32,10.0,South,8.1,-,N/A,,Mostly Cloudy,170,2012-10-28 17:52:00
1:11 PM,42.8,24.8,49,30.32,10.0,SSW,6.9,-,N/A,,Mostly Cloudy,200,2012-10-28 18:11:00
1:32 PM,42.8,24.8,49,30.31,10.0,South,8.1,-,N/A,,Overcast,180,2012-10-28 18:32:00
1:52 PM,42.8,24.8,49,30.31,10.0,SSW,5.8,-,N/A,,Overcast,210,2012-10-28 18:52:00
2:11 PM,42.8,24.8,49,30.30,10.0,SE,6.9,-,N/A,,Mostly Cloudy,140,2012-10-28 19:11:00
2:32 PM,44.6,24.8,46,30.29,10.0,South,6.9,-,N/A,,Scattered Clouds,170,2012-10-28 19:32:00
2:52 PM,44.6,24.8,46,30.29,10.0,South,6.9,-,N/A,,Clear,190,2012-10-28 19:52:00
3:11 PM,44.6,23.0,43,30.28,10.0,South,9.2,-,N/A,,Clear,190,2012-10-28 20:11:00
3:32 PM,44.6,23.0,43,30.28,10.0,South,6.9,-,N/A,,Clear,180,2012-10-28 20:32:00
3:52 PM,42.8,23.0,46,30.28,10.0,South,5.8,-,N/A,,Clear,180,2012-10-28 20:52:00
4:11 PM,44.6,23.0,43,30.28,10.0,South,6.9,-,N/A,,Clear,180,2012-10-28 21:11:00
4:32 PM,44.6,24.8,46,30.27,10.0,South,6.9,-,N/A,,Clear,190,2012-10-28 21:32:00
4:52 PM,44.6,24.8,46,30.27,10.0,South,6.9,-,N/A,,Clear,180,2012-10-28 21:52:00
5:11 PM,42.8,23.0,46,30.27,10.0,South,6.9,-,N/A,,Clear,180,2012-10-28 22:11:00
5:32 PM,41.0,23.0,49,30.27,7.0,SSE,4.6,-,N/A,,Clear,160,2012-10-28 22:32:00
5:52 PM,39.2,23.0,52,30.27,10.0,Calm,Calm,-,N/A,,Clear,0,2012-10-28 22:52:00
6:11 PM,39.2,23.0,52,30.28,10.0,SSE,3.5,-,N/A,,Clear,160,2012-10-28 23:11:00
6:32 PM,37.4,23.0,56,30.28,7.0,SE,3.5,-,N/A,,Clear,140,2012-10-28 23:32:00
6:52 PM,37.4,23.0,56,30.28,10.0,Calm,Calm,-,N/A,,Clear,0,2012-10-28 23:52:00
7:11 PM,35.6,23.0,60,30.28,10.0,Calm,Calm,-,N/A,,Clear,0,2012-10-29 00:11:00
7:32 PM,32.0,24.8,75,30.29,10.0,Calm,Calm,-,N/A,,Clear,0,2012-10-29 00:32:00
7:52 PM,35.6,24.8,65,30.28,10.0,SSE,3.5,-,N/A,,Unknown,150,2012-10-29 00:52:00
8:32 PM,33.8,23.0,65,30.29,10.0,Calm,Calm,-,N/A,,Unknown,0,2012-10-29 01:32:00
8:52 PM,33.8,23.0,65,30.29,10.0,Calm,Calm,-,N/A,,Unknown,0,2012-10-29 01:52:00
9:12 PM,33.8,23.0,65,30.29,10.0,Calm,Calm,-,N/A,,Unknown,0,2012-10-29 02:12:00
9:32 PM,30.2,24.8,80,30.30,10.0,Calm,Calm,-,N/A,,Unknown,0,2012-10-29 02:32:00
9:52 PM,30.2,23.0,75,30.30,10.0,Calm,Calm,-,N/A,,Unknown,0,2012-10-29 02:52:00
10:12 PM,30.2,23.0,75,30.30,10.0,Calm,Calm,-,N/A,,Unknown,0,2012-10-29 03:12:00
10:32 PM,32.0,24.8,75,30.30,10.0,Calm,Calm,-,N/A,,Scattered Clouds,0,2012-10-29 03:32:00
10:52 PM,30.2,24.8,80,30.30,10.0,Calm,Calm,-,N/A,,Unknown,0,2012-10-29 03:52:00
11:12 PM,30.2,23.0,75,30.30,10.0,SSE,3.5,-,N/A,,Unknown,160,2012-10-29 04:12:00
11:52 PM,28.4,23.0,80,30.30,10.0,Calm,Calm,-,N/A,,Unknown,0,2012-10-29 04:52:00